0 HST 1 20580U 90037B 26170.09908245 .00005359 00000-0 16756-3 0 9997 2 20580 28.4721 67.5085 0001724 162.4358 197.6298 15.30765373788864 0 ISS (ZARYA) 1 25544U 98067A 26170.06007799 .00009022 00000-0 16988-3 0 9992 2 25544 51.6331 290.8234 0004653 203.3119 156.7659 15.49309015572040 0 CXO 1 25867U 99040B 26172.02247085 .00000453 00000-0 00000-0 0 9998 2 25867 56.2474 116.4966 7828330 310.2765 0.2930 0.37807394 17335